Weather History for St. Joseph, MO

Change the Weather History Date:

Saturday, January 14, 2012

  Actual Average Record
Temperature  
Mean Temperature 31 °F 27 °F  
Max Temperature 43 °F 37 °F 67 °F (1952)
Min Temperature 19 °F 17 °F -16 °F (1979)
Degree Days  
Heating Degree Days 34 38  
Month to date heating degree days 449 535  
Since 1 July heating degree days 2351 2748  
Cooling Degree Days 0 0  
Month to date cooling degree days 0 0  
Year to date cooling degree days 0 0  
Moisture  
Dew Point 19 °F    
Average Humidity 70    
Maximum Humidity 92    
Minimum Humidity 47    
Precipitation  
Precipitation 0.00 in 0.02 in 0.78 in (1960)
Month to date precipitation 0.01 0.24  
Year to date precipitation 0.01 0.24  
Sea Level Pressure  
Sea Level Pressure 30.12 in    
Wind  
Wind Speed 8 mph (WNW)    
Max Wind Speed 28 mph    
Max Gust Speed 37 mph    
Visibility 10 miles    
Events      
T = Trace of Precipitation, MM = Missing Value Source: NWS Daily Summary

Daily Weather History Graph

Daily Weather History Graph

Search for Another Location

Airport:

Trip Planner

Search our weather history database for the weather conditions in past years. The results will help you decide how hot, cold, wet, or windy it might be!

Date:

Astronomy

Jan. 14, 2012 Rise Set
Actual Time 7:39 AM CST 5:17 PM CST
Civil Twilight 7:09 AM CST 5:47 PM CST
Nautical Twilight 6:36 AM CST 6:20 PM CST
Astronomical Twilight 6:04 AM CST 6:53 PM CST
Moon 11:39 PM CST (1/14) 10:26 AM CST (1/14)
Length of Visible Light 10h 37m
Length of Day
9h 38m
Waning Gibbous, 68% of the Moon is Illuminated
Jan 14
Waning Gibbous
Jan 16
Last Quarter
Jan 23
New
Jan 30
First Quarter
Feb 7
Full

Hourly Weather History & Observations

Time (CST) Temp. Windchill Dew Point Humidity Pressure Visibility Wind Dir Wind Speed Gust Speed Precip Events Conditions
12:53 AM 28.9 °F 19.8 °F 14.0 °F 54% 29.94 in 10.0 mi SSE 10.4 mph - N/A   Overcast
1:53 AM 30.9 °F 25.2 °F 17.1 °F 57% 29.89 in 10.0 mi SSE 5.8 mph - N/A   Overcast
2:53 AM 28.0 °F 22.8 °F 17.1 °F 63% 29.89 in 10.0 mi South 4.6 mph - N/A   Clear
3:53 AM 28.0 °F 22.8 °F 19.9 °F 72% 29.87 in 10.0 mi SSW 4.6 mph - N/A   Mostly Cloudy
4:53 AM 33.1 °F 21.9 °F 21.0 °F 61% 29.89 in 10.0 mi NW 18.4 mph 28.8 mph N/A   Clear
5:53 AM 30.9 °F 19.1 °F 19.0 °F 61% 29.95 in 10.0 mi NW 18.4 mph - N/A   Clear
6:53 AM 28.0 °F 15.7 °F 18.0 °F 66% 30.01 in 10.0 mi NNW 17.3 mph - N/A   Scattered Clouds
7:53 AM 24.1 °F 12.0 °F 15.1 °F 69% 30.08 in 10.0 mi NNW 13.8 mph - N/A   Partly Cloudy
8:53 AM 27.0 °F 16.1 °F 17.1 °F 66% 30.13 in 10.0 mi NNW 12.7 mph - N/A   Mostly Cloudy
9:53 AM 28.9 °F 17.7 °F 16.0 °F 58% 30.19 in 10.0 mi NW 15.0 mph - N/A   Clear
10:53 AM 32.0 °F 21.6 °F 15.1 °F 50% 30.21 in 10.0 mi NNW 15.0 mph - N/A   Scattered Clouds
11:53 AM 34.0 °F 29.8 °F 16.0 °F 48% 30.21 in 10.0 mi NW 4.6 mph - N/A   Overcast
12:53 PM 37.0 °F 31.0 °F 19.0 °F 48% 30.20 in 10.0 mi WNW 8.1 mph - N/A   Clear
1:53 PM 39.9 °F 32.9 °F 24.1 °F 53% 30.19 in 10.0 mi NW 11.5 mph 23.0 mph N/A   Partly Cloudy
2:53 PM 42.1 °F 36.1 °F 25.0 °F 51% 30.19 in 10.0 mi NNW 10.4 mph - N/A   Clear
3:53 PM 42.8 °F 39.3 °F 24.8 °F 49% 30.17 in 10.0 mi NW 5.8 mph - N/A   Clear
4:53 PM 39.9 °F - 24.1 °F 53% 30.19 in 10.0 mi Calm Calm - N/A   Clear
5:53 PM 30.9 °F - 21.9 °F 69% 30.22 in 10.0 mi Calm Calm - N/A   Clear
6:53 PM 28.9 °F 23.9 °F 21.9 °F 75% 30.22 in 10.0 mi South 4.6 mph - N/A   Clear
7:53 PM 27.0 °F - 23.0 °F 85% 30.23 in 10.0 mi Calm Calm - N/A   Clear
8:53 PM 25.0 °F 20.7 °F 21.9 °F 88% 30.24 in 10.0 mi South 3.5 mph - N/A   Clear
9:53 PM 21.9 °F - 19.9 °F 92% 30.24 in 10.0 mi Calm Calm - N/A   Clear
10:53 PM 21.0 °F - 18.0 °F 88% 30.24 in 10.0 mi Calm Calm - N/A   Clear
11:53 PM 21.0 °F 16.2 °F 18.0 °F 88% 30.23 in 9.0 mi SSW 3.5 mph - N/A   Clear